Zurück zum Katalog

HJS-7C

AktivWissenschaftLEO
NORAD 65619·PAYLOAD·🇨🇳 China

Gestartet Sep 16, 2025 von Jiuquan Satellite Launch Center

Loading…

Nächste Überflüge (nächste 24 Stunden)

TLE

AktuellSource: Space-Track

Epoche: Sep 14, 2026, 09:28 UTC

1 65619U 25209C   26257.39512737 -.00000080  00000-0  85614-4 0  9991
2 65619  50.0012  31.7704 0002056  60.8846 299.2238 13.41474444 49615

Verfolge HJS-7C in Echtzeit mit AllMySat

Download on the App Store